Weather History for Wolf Point, MT

Change the Weather History Date:

Thursday, December 1, 2011

  Actual Average Record
Temperature  
Mean Temperature 23 °F -  
Max Temperature 31 °F 32 °F 57 °F (1998)
Min Temperature 14 °F 8 °F -11 °F (2005)
Degree Days  
Heating Degree Days 42    
Cooling Degree Days 0    
Moisture  
Dew Point 19 °F    
Average Humidity 85    
Maximum Humidity 96    
Minimum Humidity 69    
Precipitation  
Precipitation 0.00 in 0.01 in 0.06 in (2013)
Month to date precipitation 0.00 0.01  
Year to date precipitation 18.50 11.89  
Sea Level Pressure  
Sea Level Pressure 30.47 in    
Wind  
Wind Speed 7 mph (SW)    
Max Wind Speed 17 mph    
Max Gust Speed 23 mph    
Visibility 10 miles    
Events      
T = Trace of Precipitation, MM = Missing Value Source: NWS Daily Summary

Daily Weather History Graph

Daily Weather History Graph

Search for Another Location

Airport:

Trip Planner

Search our weather history database for the weather conditions in past years. The results will help you decide how hot, cold, wet, or windy it might be!

Date:

Astronomy

Dec. 01, 2011 Rise Set
Actual Time 7:31 AM MST 4:11 PM MST
Civil Twilight 6:55 AM MST 4:46 PM MST
Nautical Twilight 6:16 AM MST 5:25 PM MST
Astronomical Twilight 5:39 AM MST 6:03 PM MST
Moon 11:58 AM MST (12/1) 11:34 PM MST (12/1)
Length of Visible Light 9h 51m
Length of Day
8h 39m
Waxing Crescent, 44% of the Moon is Illuminated
Dec 1
Waxing Crescent
Dec 2
First Quarter
Dec 10
Full
Dec 17
Last Quarter
Dec 24
New

Hourly Weather History & Observations

Time (MST) Temp. Windchill Dew Point Humidity Pressure Visibility Wind Dir Wind Speed Gust Speed Precip Events Conditions
12:53 AM 21.9 °F 15.7 °F 18.0 °F 85% 30.68 in 10.0 mi SW 4.6 mph - N/A   Overcast
1:53 AM 23.0 °F 13.1 °F 19.0 °F 85% 30.69 in 10.0 mi WSW 9.2 mph - N/A   Overcast
2:53 AM 23.0 °F 15.8 °F 19.0 °F 85% 30.70 in 10.0 mi West 5.8 mph - N/A   Overcast
3:53 AM 23.0 °F 13.1 °F 19.9 °F 88% 30.69 in 10.0 mi West 9.2 mph - N/A   Overcast
4:53 AM 21.9 °F 14.5 °F 19.9 °F 92% 30.70 in 10.0 mi West 5.8 mph - N/A   Overcast
5:53 AM 21.0 °F 10.6 °F 19.0 °F 92% 30.69 in 10.0 mi WSW 9.2 mph - N/A   Partly Cloudy
6:24 AM 21.2 °F 11.7 °F 17.6 °F 86% 30.58 in 10.0 mi West 8.1 mph - N/A   Mostly Cloudy
6:53 AM 17.1 °F 6.6 °F 16.0 °F 96% 30.69 in 10.0 mi WSW 8.1 mph - N/A   Mostly Cloudy
7:53 AM 18.0 °F 11.1 °F 16.0 °F 92% 30.69 in 10.0 mi WSW 4.6 mph - N/A   Mostly Cloudy
8:00 AM 17.6 °F 12.3 °F 15.8 °F 93% 30.58 in 10.0 mi SW 3.5 mph - N/A   Scattered Clouds
8:23 AM 19.4 °F 12.8 °F 17.6 °F 93% 30.58 in 10.0 mi SW 4.6 mph - N/A   Mostly Cloudy
8:53 AM 19.0 °F 12.3 °F 17.1 °F 92% 30.68 in 10.0 mi WSW 4.6 mph - N/A   Overcast
9:01 AM 19.4 °F 11.5 °F 17.6 °F 93% 30.56 in 10.0 mi WSW 5.8 mph - N/A   Overcast
9:17 AM 21.2 °F 13.6 °F 19.4 °F 93% 30.56 in 10.0 mi WSW 5.8 mph - N/A   Overcast
9:53 AM 24.1 °F 14.4 °F 19.9 °F 84% 30.66 in 10.0 mi WSW 9.2 mph - N/A   Overcast
10:53 AM 25.0 °F 14.2 °F 21.0 °F 85% 30.62 in 10.0 mi SW 11.5 mph - N/A   Mostly Cloudy
11:04 AM 24.8 °F 16.1 °F 21.2 °F 86% 30.50 in 10.0 mi SW 8.1 mph - N/A   Scattered Clouds
11:53 AM 27.0 °F 16.1 °F 21.9 °F 81% 30.56 in 10.0 mi SW 12.7 mph - N/A   Clear
12:53 PM 28.4 °F 18.0 °F 21.2 °F 74% 30.40 in 10.0 mi SW 12.7 mph - N/A   Clear
2:53 PM 30.0 °F 20.0 °F 23.0 °F 75% 30.40 in 10.0 mi SW 12.7 mph - N/A   Clear
3:53 PM 30.0 °F 19.5 °F 23.0 °F 75% 30.36 in 10.0 mi SW 13.8 mph - N/A   Clear
4:53 PM 28.9 °F 19.8 °F 21.9 °F 75% 30.32 in 10.0 mi WSW 10.4 mph - N/A   Clear
5:53 PM 27.0 °F 18.7 °F 21.0 °F 78% 30.27 in 10.0 mi SW 8.1 mph - N/A   Clear
6:53 PM 21.9 °F 17.2 °F 18.0 °F 85% 30.23 in 10.0 mi SSW 3.5 mph - N/A   Clear
7:53 PM 18.0 °F - 16.0 °F 92% 30.19 in 10.0 mi Calm Calm - N/A   Clear
8:53 PM 17.1 °F - 14.0 °F 88% 30.15 in 10.0 mi Calm Calm - N/A   Clear
9:53 PM 24.8 °F 16.9 °F 19.4 °F 80% 29.99 in 10.0 mi SSW 6.9 mph - N/A   Clear
10:53 PM 27.0 °F 19.5 °F 19.0 °F 72% 30.02 in 10.0 mi SSW 6.9 mph - N/A   Clear
11:53 PM 28.0 °F 15.7 °F 19.0 °F 69% 29.94 in 10.0 mi SW 17.3 mph 23.0 mph N/A   Clear